Hourly Data Report for October 02, 2017

All times are specified in Local Standard Time (LST). Add 1 hour to adjust for Daylight Saving Time where and when it is observed.

KITCHENER/WATERLOO
ONTARIO

43°27'39.000" N
80°22'43.000" W
321.60 m
6144239
71368
YKF

Download Data

Hourly Data (October 2017)
Hourly Data Report for October 2, 2017
Temp Definition
°C
Dew Point Temp Definition
°C
Rel Hum Definition
%
Wind Dir Definition
10's deg

Wind Spd Definition
km/h
Visibility Definition
km
Stn Press Definition
kPa
Hmdx Definition


Wind Chill Definition


Weather Definition


TIME
00:00 Legend Double Dagger 3.9 3.9 100   0 0.4 98.83     Fog
01:00 Legend Double Dagger 3.4 3.4 100 34 4 0.6 98.85     Rain,Fog
02:00 Legend Double Dagger 2.9 2.9 100 32 4 0.4 98.84     Rain,Fog
03:00 Legend Double Dagger 3.6 3.6 100 LegendMM 4 2.4 98.85     Rain,Fog
04:00 Legend Double Dagger 2.5 2.5 100 LegendMM 4 1.2 98.87     Fog
05:00 Legend Double Dagger 2.0 2.0 100 31 4 1.0 98.91     Fog
06:00 Legend Double Dagger 2.8 2.8 100 30 4 0.2 98.98     Fog
07:00 Legend Double Dagger 3.9 3.9 100 30 5 0.0 99.03     Fog
08:00 Legend Double Dagger 8.2 8.2 100 LegendMM 4 4.0 99.05     Fog
09:00 Legend Double Dagger 13.1 12.1 93 9 15 16.1 99.05     LegendNANA
10:00 Legend Double Dagger 16.6 8.8 60 11 15 16.1 99.10     LegendNANA
11:00 Legend Double Dagger 18.5 8.2 51 11 17 16.1 99.08     LegendNANA
12:00 Legend Double Dagger 20.0 6.1 40 12 18 16.1 99.05     LegendNANA
13:00 Legend Double Dagger 20.8 4.4 34 14 21 16.1 98.99     LegendNANA
14:00 Legend Double Dagger 20.8 5.6 37 LegendMM 4 16.1 98.98     LegendNANA
15:00 Legend Double Dagger 21.1 7.5 41 12 11 16.1 98.96     LegendNANA
16:00 Legend Double Dagger 21.1 7.2 40 11 11 16.1 98.95     LegendNANA
17:00 Legend Double Dagger 19.0 8.4 50 11 21 16.1 98.97     LegendNANA
18:00 Legend Double Dagger 15.0 8.5 65 11 17 16.1 99.02     LegendNANA
19:00 Legend Double Dagger 12.6 8.5 76 10 11 16.1 99.08     LegendNANA
20:00 Legend Double Dagger 11.1 9.2 88 10 11 16.1 99.10     LegendNANA
21:00 Legend Double Dagger 8.1 7.8 98 10 5 16.1 99.10     LegendNANA
22:00 Legend Double Dagger 8.5 8.4 99 6 4 12.9 99.11     LegendNANA
23:00 Legend Double Dagger 7.7 7.6 99 35 5 1.2 99.11     Rain,Fog

Notes on Data Quality.

Legend

  • E = Estimated
  • M = Missing
  • NA = Not Available
  • ‡ = Partner data that is not subject to review by the National Climate Archives
Date modified: